Regional Weather Roundup
Issued by NWS

Home | Current Version | Previous Version | Graphics & Text | Print | Product List | Glossary On
Versions: 1 2 3 4 5 6 7 8 9 10 11 12 13 14 15 16 17 18 19 20 21 22 23 24 25 26 27 28 29 30 31 32 33 34 35 36 37 38 39 40 41 42 43 44 45 46 47 48 49 50
994
ASUS43 KLOT 052208
RWRIL

ILLINOIS REGIONAL WEATHER ROUNDUP
NATIONAL WEATHER SERVICE CHICAGO/ROMEOVILLE IL
500 PM CDT THU MAY 05 2016

NOTE: "FAIR" INDICATES FEW OR NO CLOUDS BELOW 12,000 FEET WITH NO
SIGNIFICANT WEATHER AND/OR OBSTRUCTIONS TO VISIBILITY.

* THESE STATIONS ARE NOT UNDER NWS QUALITY CONTROL. THEY ALSO MAY NOT
  REPORT WEATHER SUCH AS PRECIPITATION OR FOG.

ILZ001-002-007-009-015-016-024-052300-
NORTHWEST ILLINOIS

CITY           SKY/WX    TMP DP  RH WIND       PRES   REMARKS
MOLINE         SUNNY     68  37  32 N8        30.00S
STERLING*      SUNNY     66  39  37 W7        30.00S
SAVANNA*       SUNNY     66  38  36 W6        30.00S
$$

ILZ003-004-008-010-011-017-018-052300-
NORTH CENTRAL ILLINOIS

CITY           SKY/WX    TMP DP  RH WIND       PRES   REMARKS
ROCKFORD       MOSUNNY   66  37  34 NW5       30.00F
FREEPORT*      SUNNY     64  39  39 NW9       30.01S
ROCHELLE*      SUNNY     64  39  40 NW7       29.99S
DE KALB*       SUNNY     64  43  46 W8        29.99S
$$

ILZ005-006-012>014-019>023-052300-
NORTHEAST ILLINOIS

CITY           SKY/WX    TMP DP  RH WIND       PRES   REMARKS
CHICAGO-OHARE  MOSUNNY   59  40  49 E8        29.97F
CHICAGO-MIDWAY MOSUNNY   58  38  47 NE9       29.98F
AURORA         MOSUNNY   66  44  45 W10       29.98S
LANSING*       SUNNY     55  40  58 N9        29.99F
JOLIET*        MOSUNNY   67  43  41 NW6       29.97S
WAUKEGAN       SUNNY     52  39  61 E8        29.98S
DUPAGE AIRPORT PTSUNNY   66  42  41 MISG      29.96F
KANKAKEE*      SUNNY     64  43  46 N9        29.98S
WHEELING       SUNNY     55  39  54 NE8       29.99F
MORRIS*        SUNNY     66  40  39 CALM      29.96S
ROMEOVILLE*    MOSUNNY   63  40  42 CALM      29.97S
NORTHERLY ISL    N/A     49  40  71 N6          N/A
NORTHERLY ISL    N/A     49  40  71 N6          N/A
$$

LMZ740>746-052300-
SOUTHERN LAKE MICHIGAN

STATION/POSITION SKY/WX   TEMP    WIND        PRES    VSBY  WAVE
                          AIR SEA DIR/SP/G                  HT/PER
                          (F)     (DEG/KT/KT) (MB)    (MI)  (FT/S)
SOUTHERN BUOY              43 40   30/  8/  8 1015.2F         3/ 6
WILMETTE HARBOR            44 44   80/  6/  8   N/A           3/ 6
HARRISON CRIB              46      30/ 15/ 17   N/A
BURNHAM HARBOR             49      10/  7/ 11   N/A
CALUMET HARBOR             48     350/ 10/ 13 1015.5F
BURNS HARBOR               44      20/  7/ 10 1016.6F
MICHIGAN CITY              45     340/  8/  9   N/A
ST. JOSEPH                 44 47                N/A           3/ 5
$$

ILZ025>027-034>036-040-047-049-050-058-095>099-052300-
WEST-CENTRAL ILLINOIS

CITY           SKY/WX    TMP DP  RH WIND       PRES   REMARKS
QUINCY         SUNNY     66  38  35 NW10      30.02F
GALESBURG*     SUNNY     65  37  35 N7        30.01S
MACOMB*        SUNNY     67  35  30 NW6       30.03S
JACKSONVILLE*  SUNNY     66  41  39 N9        30.00F
PITTSFIELD*    SUNNY     65  42  42 N5        30.03S
$$

ILZ028>032-037-038-041>044-048-051>054-059>061-052300-
CENTRAL ILLINOIS

CITY           SKY/WX    TMP DP  RH WIND       PRES   REMARKS
PONTIAC        MOSUNNY   67  43  42 NW8       29.98S
BLOOMINGTON    MOSUNNY   66  43  43 N10       29.99S
DECATUR        MOSUNNY   65  44  46 N10       29.98S
PEORIA         SUNNY     66  40  38 VRB5      30.00S
LACON*         SUNNY     65  42  42 N6        29.99S
LINCOLN*       PTSUNNY   66  44  45 NW5       29.99S
SPRINGFIELD    MOSUNNY   68  42  38 N8        30.00S
TAYLORVILLE    PTSUNNY   64  43  46 N8        29.99F
$$

ILZ033-039-045-046-055>057-062-063-052300-
EAST-CENTRAL ILLINOIS

CITY           SKY/WX    TMP DP  RH WIND       PRES   REMARKS
CHAMPAIGN      MOSUNNY   66  41  40 N12       29.96S
RANTOUL*       SUNNY     67  42  41 N13       29.96S
MATTOON        MOSUNNY   65  40  39 N15G22    29.95S
PARIS*         MOSUNNY   65  44  47 N6        29.95S
$$

ILZ079-100>102-052300-
SOUTHWEST ILLINOIS

CITY           SKY/WX    TMP DP  RH WIND       PRES   REMARKS
BELLEVILLE     SUNNY     65  46  49 VRB6      30.00S
CAHOKIA*       PTSUNNY   67  43  41 N10       30.01F
SPARTA*        CLOUDY    62  45  54 N8        30.02S
$$

ILZ064>066-069>071-074>076-080>082-084>086-088>090-092>094-052300-
SOUTH-CENTRAL ILLINOIS

CITY           SKY/WX    TMP DP  RH WIND       PRES   REMARKS
CARBONDALE     MOSUNNY   62  44  51 N14       30.00S
CAIRO*         PTSUNNY   63  44  51 N10G18    29.99S
EFFINGHAM*     CLOUDY    65  46  51 NW10G18   29.98S
MARION         MOSUNNY   63  45  51 N14       30.00S
MT. VERNON     MOSUNNY   63  46  55 NW5       30.00S
CENTRALIA*     MOSUNNY   64  49  58 NW9G16    29.99S
SALEM*         PTSUNNY   64  46  51 N12       29.99R
METROPOLIS*    CLOUDY    61  47  59 N9        29.99S
$$

ILZ067-068-072-073-078-083-087-091-052300-
SOUTHEAST ILLINOIS

CITY           SKY/WX    TMP DP  RH WIND       PRES   REMARKS
LAWRENCEVILLE  PTSUNNY   65  45  48 N18       29.94S
FLORA*         MOSUNNY   66  46  48 NW13G22   29.97S
FAIRFIELD*     PTSUNNY   62  47  57 W6        29.96S
HARRISBURG*    CLOUDY    60  46  61 N12       29.99S
ROBINSON*      MOSUNNY   63  47  54 N10G18    29.94S
CARMI*         CLOUDY    60  47  63 NW12      29.97S
$$

ABBREVIATIONS USED IN REMARKS
   TC - TEMPERATURE IN CELSIUS
  WCI - WIND CHILL INDEX
   HX - HEAT INDEX
  VSB - VISIBILITY
$$





USA.gov is the U.S. government's official web portal to all federal, state and local government web resources and services.